Wetterdaten: Freitag, 15.01.2016
Datum Zeit Temp. A. Mod.Schuppen Aussentemp2 Feuchte A. Luftdruck Regen Wind Richtung Richtung Sonnenschein Helligkeit Solar
15.01.2016 00:00 -42,1 C 2,9 C 0,0 C 0 % 999,6 hPa 0,0 l/m 27,6 km/h (5 Bft) S-SW45 205 0 min 0 lux 0 W/m
15.01.2016 00:05 -42,1 C 2,9 C 1,2 C 0 % 999,6 hPa 0,0 l/m 28,0 km/h (5 Bft) W-NW67.5 300 0 min 41 lux 0 W/m
15.01.2016 00:10 -42,1 C 3,0 C 0,0 C 0 % 999,6 hPa 0,0 l/m 27,6 km/h (5 Bft) S-SW45 205 0 min 0 lux 0 W/m
15.01.2016 00:15 -42,1 C 2,9 C 0,0 C 0 % 999,6 hPa 0,0 l/m 27,6 km/h (5 Bft) S-SW45 205 0 min 0 lux 0 W/m
15.01.2016 00:20 -42,1 C 2,9 C 0,0 C 0 % 999,6 hPa 0,0 l/m 27,6 km/h (5 Bft) S-SW45 205 0 min 0 lux 0 W/m
15.01.2016 00:25 -17,1 C 2,9 C 1,2 C 0 % 999,1 hPa 0,0 l/m 28,0 km/h (5 Bft) W-NW45 300 0 min 104 klux 0 W/m
15.01.2016 00:30 -17,1 C 2,9 C 0,0 C 0 % 999,1 hPa 0,0 l/m 27,6 km/h (5 Bft) S-SW45 205 0 min 0 lux 0 W/m
15.01.2016 00:35 -17,1 C 2,9 C 0,0 C 0 % 999,1 hPa 0,0 l/m 27,6 km/h (5 Bft) S-SW45 205 0 min 0 lux 0 W/m
15.01.2016 00:40 -17,1 C 2,9 C 0,0 C 0 % 999,1 hPa 0,0 l/m 27,6 km/h (5 Bft) S-SW45 205 0 min 0 lux 0 W/m
15.01.2016 00:45 -17,1 C 2,9 C 1,2 C 0 % 999,1 hPa 0,0 l/m 28,0 km/h (5 Bft) W-NW45 300 0 min 104 klux 0 W/m
15.01.2016 00:50 -17,1 C 2,9 C 0,0 C 0 % 999,1 hPa 0,0 l/m 27,6 km/h (5 Bft) S-SW45 205 0 min 0 lux 0 W/m
15.01.2016 00:55 -17,1 C 3,0 C 0,0 C 0 % 999,1 hPa 0,0 l/m 27,6 km/h (5 Bft) S-SW45 205 0 min 0 lux 0 W/m
15.01.2016 01:00 -17,1 C 3,0 C 0,0 C 0 % 999,1 hPa 0,0 l/m 27,6 km/h (5 Bft) S-SW45 205 0 min 0 lux 0 W/m
15.01.2016 01:05 26,3 C 3,0 C 1,2 C 0 % 998,5 hPa 0,0 l/m 28,0 km/h (5 Bft) S67.5 175 0 min 26,5 klux 0 W/m
15.01.2016 01:10 26,3 C 3,0 C 0,0 C 0 % 997,5 hPa 0,0 l/m 27,6 km/h (5 Bft) S-SW45 205 0 min 0 lux 0 W/m
15.01.2016 01:15 26,3 C 2,8 C 0,0 C 0 % 997,5 hPa 0,0 l/m 27,6 km/h (5 Bft) S-SW45 205 0 min 0 lux 0 W/m
15.01.2016 01:20 26,3 C 2,8 C 0,0 C 0 % 998,5 hPa 0,0 l/m 27,6 km/h (5 Bft) S-SW45 205 0 min 0 lux 0 W/m
15.01.2016 01:25 26,3 C 2,8 C 1,2 C 0 % 998,5 hPa 0,0 l/m 28,0 km/h (5 Bft) S67.5 175 0 min 26,5 klux 0 W/m
15.01.2016 01:30 26,3 C 1,6 C 0,0 C 0 % 998,5 hPa 0,0 l/m 27,6 km/h (5 Bft) S-SW45 205 0 min 0 lux 0 W/m
15.01.2016 01:35 26,3 C 1,3 C 0,0 C 0 % 998,5 hPa 0,0 l/m 27,6 km/h (5 Bft) S-SW45 205 0 min 0 lux 0 W/m
15.01.2016 01:40 26,3 C 1,2 C 0,0 C 0 % 998,5 hPa 0,0 l/m 27,6 km/h (5 Bft) S-SW45 205 0 min 0 lux 0 W/m
15.01.2016 01:45 -26,5 C 1,2 C 1,2 C 0 % 999,3 hPa 0,0 l/m 28,0 km/h (5 Bft) S67.5 185 0 min 9,6 klux 0 W/m
15.01.2016 01:50 -26,5 C 1,2 C 0,0 C 0 % 999,3 hPa 0,0 l/m 27,6 km/h (5 Bft) S-SW45 205 0 min 0 lux 0 W/m
15.01.2016 01:55 -26,5 C 1,2 C 0,0 C 0 % 999,3 hPa 0,0 l/m 27,6 km/h (5 Bft) S-SW45 205 0 min 0 lux 0 W/m
15.01.2016 02:00 -26,5 C 1,2 C 0,0 C 0 % 999,3 hPa 0,0 l/m 27,6 km/h (5 Bft) S-SW45 205 0 min 0 lux 0 W/m
15.01.2016 02:05 -26,5 C 1,2 C 1,2 C 0 % 999,3 hPa 0,0 l/m 28,0 km/h (5 Bft) S67.5 185 0 min 9,6 klux 0 W/m
15.01.2016 02:10 -26,5 C 1,2 C 0,0 C 0 % 999,3 hPa 0,0 l/m 27,6 km/h (5 Bft) S-SW45 205 0 min 0 lux 0 W/m
15.01.2016 02:15 -26,5 C 1,2 C 0,0 C 0 % 999,3 hPa 0,0 l/m 27,6 km/h (5 Bft) S-SW45 205 0 min 0 lux 0 W/m
15.01.2016 02:20 -26,5 C 1,2 C 0,0 C 0 % 999,3 hPa 0,0 l/m 27,6 km/h (5 Bft) S-SW45 205 0 min 0 lux 0 W/m
15.01.2016 02:25 -23,2 C -1,5 C -5,3 C 0 % 999,2 hPa 0,0 l/m 62,5 km/h (7 Bft) N-NW22.5 345 0 min 225 lux 0 W/m
15.01.2016 02:30 -23,2 C 1,3 C 0,0 C 0 % 999,2 hPa 0,0 l/m 27,6 km/h (5 Bft) S-SW45 205 0 min 0 lux 0 W/m
15.01.2016 02:35 -23,2 C 1,3 C 0,0 C 0 % 999,2 hPa 0,0 l/m 27,6 km/h (5 Bft) S-SW45 205 0 min 0 lux 0 W/m
15.01.2016 02:40 -23,2 C 1,3 C 0,0 C 0 % 999,2 hPa 0,0 l/m 27,6 km/h (5 Bft) S-SW45 205 0 min 0 lux 0 W/m
15.01.2016 02:45 -19,8 C -1,5 C -5,3 C 0 % 999,2 hPa 0,0 l/m 62,5 km/h (7 Bft) N-NW22.5 345 0 min 225 lux 0 W/m
15.01.2016 02:50 -19,8 C 1,3 C 0,0 C 0 % 999,2 hPa 0,0 l/m 27,6 km/h (5 Bft) S-SW45 205 0 min 0 lux 0 W/m
15.01.2016 02:55 -19,8 C 1,3 C 0,0 C 0 % 999,2 hPa 0,0 l/m 27,6 km/h (5 Bft) S-SW45 205 0 min 0 lux 0 W/m
15.01.2016 03:00 -19,8 C 1,3 C 0,0 C 0 % 999,2 hPa 0,0 l/m 27,6 km/h (5 Bft) S-SW45 205 0 min 0 lux 0 W/m
15.01.2016 03:05 -16,5 C 1,3 C -5,3 C 0 % 999,1 hPa 0,0 l/m 63,5 km/h (8 Bft) S22.5 185 0 min 233 lux 0 W/m
15.01.2016 03:10 -16,5 C 1,3 C 0,0 C 0 % 999,1 hPa 0,0 l/m 27,6 km/h (5 Bft) S-SW45 205 0 min 0 lux 0 W/m
15.01.2016 03:15 -16,5 C 1,3 C 0,0 C 0 % 999,1 hPa 0,0 l/m 27,6 km/h (5 Bft) S-SW45 205 0 min 0 lux 0 W/m
15.01.2016 03:20 -16,5 C 1,3 C 0,0 C 0 % 999,1 hPa 0,0 l/m 27,6 km/h (5 Bft) S-SW45 205 0 min 0 lux 0 W/m
15.01.2016 03:25 -13,2 C 1,3 C -5,3 C 0 % 999,1 hPa 0,0 l/m 63,5 km/h (8 Bft) S22.5 185 0 min 233 lux 0 W/m
15.01.2016 03:30 -13,2 C 1,4 C 0,0 C 0 % 999,1 hPa 0,0 l/m 27,6 km/h (5 Bft) S-SW45 205 0 min 0 lux 0 W/m
15.01.2016 03:35 -13,2 C 1,5 C 0,0 C 0 % 999,1 hPa 0,0 l/m 27,6 km/h (5 Bft) S-SW45 205 0 min 0 lux 0 W/m
15.01.2016 03:39 -13,2 C 1,5 C 0,0 C 0 % 999,1 hPa 0,0 l/m 27,6 km/h (5 Bft) S-SW45 205 0 min 0 lux 0 W/m
15.01.2016 03:45 -16,5 C 1,5 C -5,3 C 0 % 999,1 hPa 0,0 l/m 28,0 km/h (5 Bft) SO67.5 135 0 min 13,5 klux 0 W/m
15.01.2016 03:50 -13,2 C 1,5 C 0,0 C 0 % 999,1 hPa 0,0 l/m 27,6 km/h (5 Bft) S-SW45 205 0 min 0 lux 0 W/m
15.01.2016 03:55 -13,2 C 1,5 C 0,0 C 0 % 999,1 hPa 0,0 l/m 27,6 km/h (5 Bft) S-SW45 205 0 min 0 lux 0 W/m
15.01.2016 04:00 -13,2 C 1,5 C 0,0 C 0 % 999,1 hPa 0,0 l/m 27,6 km/h (5 Bft) S-SW45 205 0 min 0 lux 0 W/m
15.01.2016 04:05 -16,5 C 1,5 C -5,3 C 0 % 999,1 hPa 0,0 l/m 28,0 km/h (5 Bft) SO67.5 135 0 min 13,5 klux 0 W/m
15.01.2016 04:10 -13,2 C 1,5 C 0,0 C 0 % 999,1 hPa 0,0 l/m 27,6 km/h (5 Bft) S-SW45 205 0 min 0 lux 0 W/m
15.01.2016 04:15 -13,2 C 1,7 C 0,0 C 0 % 999,1 hPa 0,0 l/m 27,6 km/h (5 Bft) S-SW45 205 0 min 0 lux 0 W/m
15.01.2016 04:20 -13,2 C 1,7 C 0,0 C 0 % 999,1 hPa 0,0 l/m 27,6 km/h (5 Bft) S-SW45 205 0 min 0 lux 0 W/m
15.01.2016 04:25 -16,5 C 1,7 C -5,3 C 0 % 999,1 hPa 0,0 l/m 28,0 km/h (5 Bft) NO22.5 50 0 min 15,2 klux 0 W/m
15.01.2016 04:30 -13,2 C 1,8 C 0,0 C 0 % 999,1 hPa 0,0 l/m 27,6 km/h (5 Bft) S-SW45 205 0 min 0 lux 0 W/m
15.01.2016 04:35 -13,2 C 1,8 C 0,0 C 0 % 999,1 hPa 0,0 l/m 27,6 km/h (5 Bft) S-SW45 205 0 min 0 lux 0 W/m
15.01.2016 04:40 -13,2 C 1,8 C 0,0 C 0 % 999,1 hPa 0,0 l/m 27,6 km/h (5 Bft) S-SW45 205 0 min 0 lux 0 W/m
15.01.2016 04:45 -16,5 C 1,8 C -5,3 C 0 % 999,1 hPa 0,0 l/m 28,0 km/h (5 Bft) NO22.5 50 0 min 15,2 klux 0 W/m
15.01.2016 04:50 -13,2 C 1,9 C 0,0 C 0 % 999,1 hPa 0,0 l/m 27,6 km/h (5 Bft) S-SW45 205 0 min 0 lux 0 W/m
15.01.2016 04:55 -13,2 C 1,9 C 0,0 C 0 % 999,1 hPa 0,0 l/m 27,6 km/h (5 Bft) S-SW45 205 0 min 0 lux 0 W/m
15.01.2016 05:00 -13,2 C 1,9 C 0,0 C 0 % 999,1 hPa 0,0 l/m 27,6 km/h (5 Bft) S-SW45 205 0 min 0 lux 0 W/m
15.01.2016 05:05 -50,0 C 1,9 C -5,3 C 0 % 999,7 hPa 0,0 l/m 28,0 km/h (5 Bft) O-SO45 115 0 min 200 klux 0 W/m
15.01.2016 05:10 -50,0 C 1,9 C 0,0 C 0 % 999,7 hPa 0,0 l/m 27,6 km/h (5 Bft) S-SW45 205 0 min 0 lux 0 W/m
15.01.2016 05:15 -50,0 C 1,9 C 0,0 C 0 % 999,7 hPa 0,0 l/m 27,6 km/h (5 Bft) S-SW45 205 0 min 0 lux 0 W/m
15.01.2016 05:20 -50,0 C 1,9 C 0,0 C 0 % 999,7 hPa 0,0 l/m 27,6 km/h (5 Bft) S-SW45 205 0 min 0 lux 0 W/m
15.01.2016 05:25 -50,0 C 1,9 C -5,3 C 0 % 999,7 hPa 0,0 l/m 28,0 km/h (5 Bft) O-SO45 115 0 min 200 klux 0 W/m
15.01.2016 05:30 -50,0 C 2,1 C 0,0 C 0 % 999,7 hPa 0,0 l/m 27,6 km/h (5 Bft) S-SW45 205 0 min 0 lux 0 W/m
15.01.2016 05:35 -50,0 C 2,2 C 0,0 C 0 % 999,7 hPa 0,0 l/m 27,6 km/h (5 Bft) S-SW45 205 0 min 0 lux 0 W/m
15.01.2016 05:40 -50,0 C 2,3 C 0,0 C 0 % 999,7 hPa 0,0 l/m 27,6 km/h (5 Bft) S-SW45 205 0 min 0 lux 0 W/m
15.01.2016 05:45 -50,0 C 2,3 C -5,3 C 0 % 999,7 hPa 0,0 l/m 28,0 km/h (5 Bft) NW22.5 315 0 min 200 klux 0 W/m
15.01.2016 05:50 -50,0 C 2,3 C 0,0 C 0 % 999,7 hPa 0,0 l/m 27,6 km/h (5 Bft) S-SW45 205 0 min 0 lux 0 W/m
15.01.2016 05:55 -50,0 C 2,3 C 0,0 C 0 % 999,7 hPa 0,0 l/m 27,6 km/h (5 Bft) S-SW45 205 0 min 0 lux 0 W/m
15.01.2016 06:00 -50,0 C 2,3 C 0,0 C 0 % 999,7 hPa 0,0 l/m 27,6 km/h (5 Bft) S-SW45 205 0 min 0 lux 0 W/m
15.01.2016 06:05 -50,0 C 2,3 C -5,3 C 0 % 999,7 hPa 0,0 l/m 28,0 km/h (5 Bft) NW22.5 315 0 min 200 klux 0 W/m
15.01.2016 06:10 -50,0 C 2,3 C 0,0 C 0 % 999,7 hPa 0,0 l/m 27,6 km/h (5 Bft) S-SW45 205 0 min 0 lux 0 W/m
15.01.2016 06:15 -50,0 C 2,3 C 0,0 C 0 % 1000,7 hPa 0,0 l/m 27,6 km/h (5 Bft) S-SW45 205 0 min 0 lux 0 W/m
15.01.2016 06:20 -50,0 C 2,3 C 0,0 C 0 % 1000,7 hPa 0,0 l/m 27,6 km/h (5 Bft) S-SW45 205 0 min 0 lux 0 W/m
15.01.2016 06:25 -46,7 C 2,3 C -5,3 C 0 % 1000,7 hPa 0,0 l/m 28,0 km/h (5 Bft) S 175 0 min 200 klux 0 W/m
15.01.2016 06:30 -46,7 C 2,0 C 0,0 C 0 % 1000,7 hPa 0,0 l/m 27,6 km/h (5 Bft) S-SW45 205 0 min 0 lux 0 W/m
15.01.2016 06:35 -46,7 C 2,0 C 0,0 C 0 % 1000,7 hPa 0,0 l/m 27,6 km/h (5 Bft) S-SW45 205 0 min 0 lux 0 W/m
15.01.2016 06:40 -46,7 C 1,9 C 0,0 C 0 % 1000,7 hPa 0,0 l/m 27,6 km/h (5 Bft) S-SW45 205 0 min 0 lux 0 W/m
15.01.2016 06:45 -43,3 C 1,9 C -5,3 C 0 % 1000,6 hPa 0,0 l/m 28,0 km/h (5 Bft) S 175 0 min 200 klux 0 W/m
15.01.2016 06:50 -43,3 C 1,9 C 0,0 C 0 % 1000,6 hPa 0,0 l/m 27,6 km/h (5 Bft) S-SW45 205 0 min 0 lux 0 W/m
15.01.2016 06:55 -43,3 C 1,9 C 0,0 C 0 % 1000,6 hPa 0,0 l/m 27,6 km/h (5 Bft) S-SW45 205 0 min 0 lux 0 W/m
15.01.2016 07:00 -43,3 C 1,9 C 0,0 C 0 % 1000,6 hPa 0,0 l/m 27,6 km/h (5 Bft) S-SW45 205 0 min 0 lux 0 W/m
15.01.2016 07:05 -40,0 C 1,9 C -5,3 C 0 % 1000,5 hPa 0,0 l/m 71,5 km/h (8 Bft) S-SO22.5 155 0 min 200 klux 0 W/m
15.01.2016 07:10 -40,0 C 1,9 C 0,0 C 0 % 1001,5 hPa 0,0 l/m 27,6 km/h (5 Bft) S-SW45 205 0 min 0 lux 0 W/m
15.01.2016 07:15 -40,0 C 1,9 C 0,0 C 0 % 1001,5 hPa 0,0 l/m 27,6 km/h (5 Bft) S-SW45 205 0 min 0 lux 0 W/m
15.01.2016 07:20 -40,0 C 1,9 C 0,0 C 0 % 1001,5 hPa 0,0 l/m 27,6 km/h (5 Bft) S-SW45 205 0 min 0 lux 0 W/m
15.01.2016 07:25 -36,7 C 1,9 C -5,3 C 0 % 1001,5 hPa 0,0 l/m 71,5 km/h (8 Bft) S-SO22.5 155 0 min 200 klux 0 W/m
15.01.2016 07:30 -36,7 C 1,7 C 0,0 C 0 % 1001,5 hPa 0,0 l/m 27,6 km/h (5 Bft) S-SW45 205 0 min 0 lux 0 W/m
15.01.2016 07:35 -36,7 C 1,7 C 0,0 C 0 % 1001,5 hPa 0,0 l/m 27,6 km/h (5 Bft) S-SW45 205 0 min 0 lux 0 W/m
15.01.2016 07:40 -36,7 C 1,9 C 0,0 C 0 % 1001,5 hPa 0,0 l/m 27,6 km/h (5 Bft) S-SW45 205 0 min 0 lux 0 W/m
15.01.2016 07:45 -40,0 C 1,9 C -5,3 C 0 % 1001,5 hPa 0,0 l/m 28,0 km/h (5 Bft) S22.5 175 0 min 15,2 klux 0 W/m
15.01.2016 08:12 -36,7 C 0,0 C 0,0 C 0 % 1001,5 hPa 0,0 l/m 0,0 km/h (0 Bft) N 360 0 min 0 lux 0 W/m
15.01.2016 08:17 -36,7 C 0,0 C 0,0 C 0 % 1002,5 hPa 0,0 l/m 0,0 km/h (0 Bft) N 360 0 min 0 lux 0 W/m
15.01.2016 08:22 -36,7 C 0,0 C 0,0 C 0 % 1002,5 hPa 0,0 l/m 0,0 km/h (0 Bft) N 360 0 min 38 lux 0 W/m
15.01.2016 08:27 16,5 C 7,5 C -1,3 C 0 % 1001,7 hPa 0,0 l/m 16,5 km/h (3 Bft) NW67.5 305 0 min 165 lux 0 W/m
15.01.2016 08:32 16,5 C 7,5 C 0,0 C 0 % 1001,7 hPa 0,0 l/m 0,0 km/h (0 Bft) N 360 0 min 92 lux 0 W/m
15.01.2016 08:37 16,5 C 7,5 C 0,0 C 0 % 1001,7 hPa 0,0 l/m 0,0 km/h (0 Bft) N 360 0 min 134 lux 0 W/m
15.01.2016 08:42 16,5 C 7,5 C 0,0 C 0 % 1002,7 hPa 0,0 l/m 0,0 km/h (0 Bft) N 360 0 min 160 lux 1 W/m
15.01.2016 08:47 16,5 C 7,5 C -1,3 C 0 % 1002,7 hPa 0,0 l/m 16,5 km/h (3 Bft) NW67.5 305 0 min 165 lux 1 W/m
15.01.2016 08:52 16,5 C 7,5 C 0,0 C 0 % 1002,7 hPa 0,0 l/m 0,0 km/h (0 Bft) N 360 0 min 198 lux 1 W/m
15.01.2016 08:57 16,5 C 7,5 C 0,0 C 0 % 1002,7 hPa 0,0 l/m 0,0 km/h (0 Bft) N 360 0 min 228 lux 2 W/m
15.01.2016 09:02 16,5 C 7,5 C 0,0 C 0 % 1002,7 hPa 0,0 l/m 0,0 km/h (0 Bft) N 360 0 min 297 lux 2 W/m
15.01.2016 09:07 0,0 C 1,4 C 3,5 C 0 % 1002,9 hPa 0,0 l/m 16,5 km/h (3 Bft) O-SO67.5 105 0 min 165 lux 1 W/m
15.01.2016 09:12 0,0 C 0,0 C 0,0 C 0 % 1002,9 hPa 0,0 l/m 0,0 km/h (0 Bft) N 360 0 min 302 lux 2 W/m
15.01.2016 09:17 0,0 C 0,0 C 0,0 C 0 % 1002,9 hPa 0,0 l/m 0,0 km/h (0 Bft) N 360 0 min 292 lux 2 W/m
15.01.2016 09:22 0,0 C 0,0 C 0,0 C 0 % 1002,9 hPa 0,0 l/m 0,0 km/h (0 Bft) N 360 0 min 305 lux 2 W/m
15.01.2016 09:27 0,0 C 1,4 C 3,5 C 0 % 1002,9 hPa 0,0 l/m 16,5 km/h (3 Bft) O-SO67.5 105 0 min 165 lux 1 W/m
15.01.2016 09:32 0,0 C 0,0 C 0,0 C 0 % 1003,9 hPa 0,0 l/m 0,0 km/h (0 Bft) N 360 0 min 433 lux 3 W/m
15.01.2016 09:37 0,0 C 0,0 C 0,0 C 0 % 1003,9 hPa 0,0 l/m 0,0 km/h (0 Bft) N 360 0 min 529 lux 4 W/m
15.01.2016 09:42 0,0 C 0,0 C 0,0 C 0 % 1003,9 hPa 0,0 l/m 0,0 km/h (0 Bft) N 360 0 min 529 lux 4 W/m
15.01.2016 09:47 0,0 C 8,0 C 1,5 C 0 % 1003,9 hPa 0,0 l/m 16,5 km/h (3 Bft) NW67.5 305 5 min 11,5 klux 79 W/m
15.01.2016 09:52 0,0 C 8,0 C 0,0 C 0 % 1003,9 hPa 0,0 l/m 0,0 km/h (0 Bft) N 360 0 min 973 lux 7 W/m
15.01.2016 09:57 0,0 C 8,0 C 0,0 C 0 % 1003,9 hPa 0,0 l/m 0,0 km/h (0 Bft) N 360 0 min 793 lux 5 W/m
15.01.2016 10:02 0,0 C 8,0 C 0,0 C 0 % 1003,9 hPa 0,0 l/m 0,0 km/h (0 Bft) N 360 0 min 783 lux 5 W/m
15.01.2016 10:07 0,0 C 8,7 C 1,5 C 0 % 1003,9 hPa 0,0 l/m 16,5 km/h (3 Bft) NW67.5 305 0 min 11,5 klux 79 W/m
15.01.2016 10:12 0,0 C 8,7 C 0,0 C 0 % 1003,9 hPa 0,0 l/m 0,0 km/h (0 Bft) N 360 0 min 1,14 klux 8 W/m
15.01.2016 10:17 0,0 C 8,7 C 0,0 C 0 % 1004,9 hPa 0,0 l/m 0,0 km/h (0 Bft) N 360 0 min 1,29 klux 9 W/m
15.01.2016 10:22 0,0 C 8,7 C 0,0 C 0 % 1004,9 hPa 0,0 l/m 0,0 km/h (0 Bft) N 360 0 min 2,84 klux 19 W/m
15.01.2016 10:27 0,0 C 0,0 C 1,4 C 0 % 1004,9 hPa 0,0 l/m 14,5 km/h (3 Bft) NW67.5 305 0 min 163 lux 1 W/m
15.01.2016 10:32 0,0 C 0,0 C 0,0 C 0 % 1004,9 hPa 0,0 l/m 0,0 km/h (0 Bft) N 360 0 min 3,27 klux 22 W/m
15.01.2016 10:37 0,0 C 0,0 C 0,0 C 0 % 1004,9 hPa 0,0 l/m 0,0 km/h (0 Bft) N 360 0 min 3,15 klux 22 W/m
15.01.2016 10:42 0,0 C 0,0 C 0,0 C 0 % 1004,9 hPa 0,0 l/m 0,0 km/h (0 Bft) N 360 0 min 2,90 klux 20 W/m
15.01.2016 10:47 0,0 C 1,5 C 1,4 C 0 % 1004,9 hPa 0,0 l/m 14,5 km/h (3 Bft) NW67.5 305 0 min 163 lux 1 W/m
15.01.2016 10:52 0,0 C 0,0 C 0,0 C 0 % 1004,9 hPa 0,0 l/m 0,0 km/h (0 Bft) N 360 0 min 3,10 klux 21 W/m
15.01.2016 10:57 0,0 C 0,0 C 0,0 C 0 % 1004,9 hPa 0,0 l/m 0,0 km/h (0 Bft) N 360 0 min 3,09 klux 21 W/m
15.01.2016 11:02 0,0 C 0,0 C 0,0 C 0 % 1005,9 hPa 0,0 l/m 0,0 km/h (0 Bft) N 360 0 min 3,36 klux 23 W/m
15.01.2016 11:07 0,0 C 1,4 C 1,5 C 0 % 1005,9 hPa 0,0 l/m 16,1 km/h (3 Bft) NW67.5 325 0 min 165 lux 1 W/m
15.01.2016 11:12 0,0 C 0,0 C 0,0 C 0 % 1005,9 hPa 0,0 l/m 0,0 km/h (0 Bft) N 360 0 min 3,08 klux 21 W/m
15.01.2016 11:17 0,0 C 0,0 C 0,0 C 0 % 1005,9 hPa 0,0 l/m 0,0 km/h (0 Bft) N 360 0 min 3,43 klux 23 W/m
15.01.2016 11:22 0,0 C 0,0 C 0,0 C 0 % 1005,9 hPa 0,0 l/m 0,0 km/h (0 Bft) N 360 0 min 3,50 klux 24 W/m
15.01.2016 11:27 0,0 C 1,4 C 1,5 C 0 % 1005,9 hPa 0,0 l/m 16,1 km/h (3 Bft) NW67.5 325 0 min 165 lux 1 W/m
15.01.2016 11:32 0,0 C 0,0 C 0,0 C 0 % 1005,9 hPa 0,0 l/m 0,0 km/h (0 Bft) N 360 0 min 2,53 klux 17 W/m
15.01.2016 11:37 0,0 C 0,0 C 0,0 C 0 % 1005,9 hPa 0,0 l/m 0,0 km/h (0 Bft) N 360 0 min 1,60 klux 11 W/m
15.01.2016 11:42 0,0 C 0,0 C 0,0 C 0 % 1005,9 hPa 0,0 l/m 0,0 km/h (0 Bft) N 360 0 min 2,03 klux 14 W/m
15.01.2016 11:47 0,0 C 1,4 C 0,7 C 0 % 1005,9 hPa 0,0 l/m 14,1 km/h (3 Bft) NW67.5 305 0 min 885 lux 6 W/m
15.01.2016 11:52 0,0 C 0,0 C 0,0 C 0 % 1005,9 hPa 0,0 l/m 0,0 km/h (0 Bft) N 360 0 min 2,66 klux 18 W/m
15.01.2016 11:57 0,0 C 0,0 C 0,0 C 0 % 1005,9 hPa 0,0 l/m 0,0 km/h (0 Bft) N 360 0 min 5,29 klux 36 W/m
15.01.2016 12:02 0,0 C 0,0 C 0,0 C 0 % 1005,9 hPa 0,0 l/m 0,0 km/h (0 Bft) N 360 0 min 9,2 klux 63 W/m
15.01.2016 12:07 0,0 C 1,4 C 0,7 C 0 % 1005,9 hPa 0,0 l/m 14,1 km/h (3 Bft) NW67.5 305 0 min 885 lux 6 W/m
15.01.2016 12:12 0,0 C 0,0 C 0,0 C 0 % 1005,9 hPa 0,0 l/m 0,0 km/h (0 Bft) N 360 0 min 5,87 klux 40 W/m
15.01.2016 12:17 0,0 C 0,0 C 0,0 C 0 % 1006,9 hPa 0,0 l/m 0,0 km/h (0 Bft) N 360 0 min 6,18 klux 42 W/m
15.01.2016 12:21 0,0 C 0,0 C 0,0 C 0 % 1006,9 hPa 0,0 l/m 0,0 km/h (0 Bft) N 360 0 min 6,19 klux 42 W/m
15.01.2016 12:27 0,0 C 1,4 C 1,5 C 0 % 1006,9 hPa 0,0 l/m 16,4 km/h (3 Bft) N67.5 360 0 min 165 lux 1 W/m
15.01.2016 12:32 0,0 C 0,0 C 0,0 C 0 % 1006,9 hPa 0,0 l/m 0,0 km/h (0 Bft) N 360 0 min 5,58 klux 38 W/m
15.01.2016 12:37 0,0 C 0,0 C 0,0 C 0 % 1006,9 hPa 0,0 l/m 0,0 km/h (0 Bft) N 360 0 min 5,58 klux 38 W/m
15.01.2016 12:42 0,0 C 0,0 C 0,0 C 0 % 1006,9 hPa 0,0 l/m 0,0 km/h (0 Bft) N 360 0 min 5,17 klux 35 W/m
15.01.2016 12:47 0,0 C 1,4 C 1,5 C 0 % 1006,9 hPa 0,0 l/m 16,4 km/h (3 Bft) N67.5 360 0 min 165 lux 1 W/m
15.01.2016 12:52 0,0 C 0,0 C 0,0 C 0 % 1006,9 hPa 0,0 l/m 0,0 km/h (0 Bft) N 360 0 min 5,31 klux 36 W/m
15.01.2016 12:57 0,0 C 0,0 C 0,0 C 0 % 1006,9 hPa 0,0 l/m 0,0 km/h (0 Bft) N 360 0 min 5,31 klux 36 W/m
15.01.2016 13:02 0,0 C 0,0 C 0,0 C 0 % 1006,9 hPa 0,0 l/m 0,0 km/h (0 Bft) N 360 0 min 4,14 klux 28 W/m
15.01.2016 13:07 0,0 C 1,4 C 1,3 C 0 % 1006,9 hPa 0,0 l/m 16,5 km/h (3 Bft) NW45 305 0 min 83 lux 1 W/m
15.01.2016 13:12 0,0 C 0,0 C 0,0 C 0 % 1006,9 hPa 0,0 l/m 0,0 km/h (0 Bft) N 360 0 min 5,32 klux 36 W/m
15.01.2016 13:17 0,0 C 0,0 C 0,0 C 0 % 1006,9 hPa 0,0 l/m 0,0 km/h (0 Bft) N 360 0 min 5,28 klux 36 W/m
15.01.2016 13:22 0,0 C 0,0 C 0,0 C 0 % 1006,9 hPa 0,0 l/m 0,0 km/h (0 Bft) N 360 0 min 5,66 klux 39 W/m
15.01.2016 13:27 0,0 C 1,4 C 1,3 C 0 % 1006,9 hPa 0,0 l/m 16,5 km/h (3 Bft) NW45 305 0 min 83 lux 1 W/m
15.01.2016 13:32 0,0 C 0,0 C 0,0 C 0 % 1006,9 hPa 0,0 l/m 0,0 km/h (0 Bft) N 360 0 min 10,5 klux 72 W/m
15.01.2016 13:37 0,0 C 0,0 C 0,0 C 0 % 1006,9 hPa 0,0 l/m 0,0 km/h (0 Bft) N 360 0 min 13,1 klux 90 W/m
15.01.2016 13:42 0,0 C 0,0 C 0,0 C 0 % 1007,9 hPa 0,0 l/m 0,0 km/h (0 Bft) N 360 0 min 13,1 klux 90 W/m
15.01.2016 13:47 0,0 C 1,4 C 1,3 C 0 % 1007,9 hPa 0,0 l/m 0,0 km/h (0 Bft) SO 140 5 min 200 klux 1368 W/m
15.01.2016 13:52 0,0 C 0,0 C 0,0 C 0 % 1007,9 hPa 0,0 l/m 0,0 km/h (0 Bft) N 360 0 min 8,55 klux 58 W/m
15.01.2016 13:57 0,0 C 0,0 C 0,0 C 0 % 1007,9 hPa 0,0 l/m 0,0 km/h (0 Bft) N 360 0 min 7,88 klux 54 W/m
15.01.2016 14:02 0,0 C 0,0 C 0,0 C 0 % 1007,9 hPa 0,0 l/m 0,0 km/h (0 Bft) N 360 0 min 8,32 klux 57 W/m
15.01.2016 14:07 0,0 C 1,4 C 1,3 C 0 % 1007,9 hPa 0,0 l/m 0,0 km/h (0 Bft) SO 140 5 min 200 klux 1368 W/m
15.01.2016 14:12 0,0 C 0,0 C 0,0 C 0 % 1007,9 hPa 0,0 l/m 0,0 km/h (0 Bft) N 360 0 min 8,28 klux 57 W/m
15.01.2016 14:17 0,0 C 0,0 C 0,0 C 0 % 1007,9 hPa 0,0 l/m 0,0 km/h (0 Bft) N 360 0 min 6,62 klux 45 W/m
15.01.2016 14:22 0,0 C 0,0 C 0,0 C 0 % 1007,9 hPa 0,0 l/m 0,0 km/h (0 Bft) N 360 0 min 7,04 klux 48 W/m
15.01.2016 14:27 0,0 C 1,4 C 1,3 C 0 % 1007,9 hPa 0,0 l/m 0,0 km/h (0 Bft) N 350 5 min 200 klux 1368 W/m
15.01.2016 14:32 0,0 C 0,0 C 0,0 C 0 % 1008,9 hPa 0,0 l/m 0,0 km/h (0 Bft) N 360 0 min 5,56 klux 38 W/m
15.01.2016 14:37 0,0 C 0,0 C 0,0 C 0 % 1008,9 hPa 0,0 l/m 0,0 km/h (0 Bft) N 360 0 min 5,98 klux 41 W/m
15.01.2016 14:41 0,0 C 0,0 C 0,0 C 0 % 1008,9 hPa 0,0 l/m 0,0 km/h (0 Bft) N 360 0 min 5,01 klux 34 W/m
15.01.2016 14:47 0,0 C 1,4 C 1,3 C 0 % 1008,9 hPa 0,0 l/m 0,0 km/h (0 Bft) N 350 6 min 200 klux 1368 W/m
15.01.2016 14:52 0,0 C 0,0 C 0,0 C 0 % 1008,9 hPa 0,0 l/m 0,0 km/h (0 Bft) N 360 0 min 3,45 klux 24 W/m
15.01.2016 14:57 0,0 C 0,0 C 0,0 C 0 % 1008,9 hPa 0,0 l/m 0,0 km/h (0 Bft) N 360 0 min 3,45 klux 24 W/m
15.01.2016 15:02 0,0 C 0,0 C 0,0 C 0 % 1008,9 hPa 0,0 l/m 0,0 km/h (0 Bft) N 360 0 min 3,46 klux 24 W/m
15.01.2016 15:07 0,0 C 1,4 C 1,3 C 0 % 1008,9 hPa 0,0 l/m 0,0 km/h (0 Bft) S-SO 150 5 min 200 klux 1368 W/m
15.01.2016 15:12 0,0 C 0,0 C 0,0 C 0 % 1008,9 hPa 0,0 l/m 0,0 km/h (0 Bft) N 360 0 min 4,12 klux 28 W/m
15.01.2016 15:17 0,0 C 0,0 C 0,0 C 0 % 1008,9 hPa 0,0 l/m 0,0 km/h (0 Bft) N 360 0 min 2,66 klux 18 W/m
15.01.2016 15:22 0,0 C 0,0 C 0,0 C 0 % 1008,9 hPa 0,0 l/m 0,0 km/h (0 Bft) N 360 0 min 2,66 klux 18 W/m
15.01.2016 15:27 0,0 C 1,4 C 1,3 C 0 % 1008,9 hPa 0,0 l/m 0,0 km/h (0 Bft) S-SO 150 5 min 200 klux 1368 W/m
15.01.2016 15:32 0,0 C 0,0 C 0,0 C 0 % 1008,9 hPa 0,0 l/m 0,0 km/h (0 Bft) N 360 0 min 2,93 klux 20 W/m
15.01.2016 15:37 0,0 C 0,0 C 0,0 C 0 % 1008,9 hPa 0,0 l/m 0,0 km/h (0 Bft) N 360 0 min 2,71 klux 19 W/m
15.01.2016 15:42 0,0 C 0,0 C 0,0 C 0 % 1009,9 hPa 0,0 l/m 0,0 km/h (0 Bft) N 360 0 min 2,01 klux 14 W/m
15.01.2016 15:47 0,0 C 1,4 C 1,3 C 0 % 1009,9 hPa 0,0 l/m 0,0 km/h (0 Bft) O-SO 110 5 min 200 klux 1368 W/m
15.01.2016 15:52 0,0 C 0,0 C 0,0 C 0 % 1009,9 hPa 0,0 l/m 0,0 km/h (0 Bft) N 360 0 min 1,65 klux 11 W/m
15.01.2016 15:57 0,0 C 0,0 C 0,0 C 0 % 1009,9 hPa 0,0 l/m 0,0 km/h (0 Bft) N 360 0 min 1,39 klux 10 W/m
15.01.2016 16:02 0,0 C 0,0 C 0,0 C 0 % 1009,9 hPa 0,0 l/m 0,0 km/h (0 Bft) N 360 0 min 1,34 klux 9 W/m
15.01.2016 16:07 0,0 C 1,4 C 1,3 C 0 % 1009,9 hPa 0,0 l/m 0,0 km/h (0 Bft) O-SO 110 5 min 200 klux 1368 W/m
15.01.2016 16:12 0,0 C 0,0 C 0,0 C 0 % 1009,9 hPa 0,0 l/m 0,0 km/h (0 Bft) N 360 0 min 1,02 klux 7 W/m
15.01.2016 16:17 0,0 C 0,0 C 0,0 C 0 % 1009,9 hPa 0,0 l/m 0,0 km/h (0 Bft) N 360 0 min 675 lux 5 W/m
15.01.2016 16:22 0,0 C 0,0 C 0,0 C 0 % 1009,9 hPa 0,0 l/m 0,0 km/h (0 Bft) N 360 0 min 424 lux 3 W/m
15.01.2016 16:27 0,0 C 1,4 C 1,3 C 30 % 1009,9 hPa 0,0 l/m 0,0 km/h (0 Bft) N 350 5 min 200 klux 1368 W/m
15.01.2016 16:32 0,0 C 0,0 C 0,0 C 0 % 1010,9 hPa 0,0 l/m 0,0 km/h (0 Bft) N 360 0 min 207 lux 1 W/m
15.01.2016 16:37 0,0 C 0,0 C 0,0 C 0 % 1010,9 hPa 0,0 l/m 0,0 km/h (0 Bft) N 360 0 min 207 lux 1 W/m
15.01.2016 16:42 0,0 C 0,0 C 0,0 C 0 % 1010,9 hPa 0,0 l/m 0,0 km/h (0 Bft) N 360 0 min 207 lux 1 W/m
15.01.2016 16:47 0,0 C 1,4 C 1,3 C 0 % 1010,9 hPa 0,0 l/m 0,0 km/h (0 Bft) N 350 0 min 200 klux 0 W/m
15.01.2016 16:52 0,0 C 0,0 C 0,0 C 0 % 1010,9 hPa 0,0 l/m 0,0 km/h (0 Bft) N 360 0 min 107 lux 0 W/m
15.01.2016 16:57 0,0 C 0,0 C 0,0 C 0 % 1010,9 hPa 0,0 l/m 0,0 km/h (0 Bft) N 360 0 min 71 lux 0 W/m
15.01.2016 17:02 0,0 C 0,0 C 0,0 C 0 % 1010,9 hPa 0,0 l/m 0,0 km/h (0 Bft) N 360 0 min 38 lux 0 W/m
15.01.2016 17:07 0,0 C 1,4 C 1,3 C 0 % 1010,9 hPa 0,0 l/m 0,0 km/h (0 Bft) S-SO 150 0 min 150 klux 0 W/m
15.01.2016 17:12 0,0 C 0,0 C 0,0 C 0 % 1010,9 hPa 0,0 l/m 0,0 km/h (0 Bft) N 360 0 min 16 lux 0 W/m
15.01.2016 17:17 0,0 C 0,0 C 0,0 C 0 % 1010,9 hPa 0,0 l/m 0,0 km/h (0 Bft) N 360 0 min 8 lux 0 W/m
15.01.2016 17:22 0,0 C 0,0 C 0,0 C 0 % 1010,9 hPa 0,0 l/m 0,0 km/h (0 Bft) N 360 0 min 6 lux 0 W/m
15.01.2016 17:27 0,0 C 1,4 C 1,3 C 0 % 1010,9 hPa 0,0 l/m 0,0 km/h (0 Bft) S-SO 150 0 min 150 klux 0 W/m
15.01.2016 17:32 0,0 C 0,0 C 0,0 C 0 % 1011,9 hPa 0,0 l/m 0,0 km/h (0 Bft) N 360 0 min 0 lux 0 W/m
15.01.2016 17:37 0,0 C 0,0 C 0,0 C 0 % 1011,9 hPa 0,0 l/m 0,0 km/h (0 Bft) N 360 0 min 0 lux 0 W/m
15.01.2016 17:42 0,0 C 0,0 C 0,0 C 0 % 1011,9 hPa 0,0 l/m 0,0 km/h (0 Bft) N 360 0 min 0 lux 0 W/m
15.01.2016 17:47 0,0 C 1,4 C 1,3 C 0 % 1011,9 hPa 0,0 l/m 0,0 km/h (0 Bft) O 100 0 min 200 klux 0 W/m
15.01.2016 17:52 0,0 C 0,0 C 0,0 C 0 % 1011,9 hPa 0,0 l/m 0,0 km/h (0 Bft) N 360 0 min 0 lux 0 W/m
15.01.2016 17:57 0,0 C 0,0 C 0,0 C 0 % 1011,9 hPa 0,0 l/m 0,0 km/h (0 Bft) N 360 0 min 0 lux 0 W/m
15.01.2016 18:02 0,0 C 2,3 C 0,0 C 0 % 1011,9 hPa 0,0 l/m 0,0 km/h (0 Bft) N 360 0 min 0 lux 0 W/m
15.01.2016 18:07 0,0 C 2,3 C 1,3 C 0 % 1011,9 hPa 0,0 l/m 0,0 km/h (0 Bft) O 100 0 min 200 klux 0 W/m
15.01.2016 18:12 0,0 C 2,2 C 0,0 C 0 % 1011,9 hPa 0,0 l/m 0,0 km/h (0 Bft) N 360 0 min 0 lux 0 W/m
15.01.2016 18:17 0,0 C 2,3 C 0,0 C 0 % 1011,9 hPa 0,0 l/m 0,0 km/h (0 Bft) N 360 0 min 0 lux 0 W/m
15.01.2016 18:22 0,0 C 2,4 C 0,0 C 0 % 1011,9 hPa 0,0 l/m 0,0 km/h (0 Bft) N 360 0 min 0 lux 0 W/m
15.01.2016 18:27 0,0 C 2,4 C 1,3 C 0 % 1011,9 hPa 0,0 l/m 0,0 km/h (0 Bft) N 350 0 min 200 klux 0 W/m
15.01.2016 18:32 0,0 C 2,4 C 0,0 C 0 % 1012,9 hPa 0,0 l/m 0,0 km/h (0 Bft) N 360 0 min 0 lux 0 W/m
15.01.2016 18:37 0,0 C 2,4 C 0,0 C 0 % 1012,9 hPa 0,0 l/m 0,0 km/h (0 Bft) N 360 0 min 0 lux 0 W/m
15.01.2016 18:42 0,0 C 2,4 C 0,0 C 0 % 1012,9 hPa 0,0 l/m 0,0 km/h (0 Bft) N 360 0 min 0 lux 0 W/m
15.01.2016 18:47 0,0 C 2,4 C 1,3 C 0 % 1012,9 hPa 0,0 l/m 0,0 km/h (0 Bft) N 350 0 min 200 klux 0 W/m
15.01.2016 18:52 0,0 C 2,3 C 0,0 C 0 % 1012,9 hPa 0,0 l/m 0,0 km/h (0 Bft) N 360 0 min 0 lux 0 W/m
15.01.2016 18:57 0,0 C 2,3 C 0,0 C 0 % 1012,9 hPa 0,0 l/m 0,0 km/h (0 Bft) N 360 0 min 0 lux 0 W/m
15.01.2016 19:02 0,0 C 2,3 C 0,0 C 0 % 1012,9 hPa 0,0 l/m 0,0 km/h (0 Bft) N 360 0 min 0 lux 0 W/m
15.01.2016 19:07 0,0 C 2,3 C 1,5 C 0 % 1012,9 hPa 0,0 l/m 35,5 km/h (5 Bft) NW67.5 305 0 min 16,5 klux 0 W/m
15.01.2016 19:12 0,0 C 2,3 C 0,0 C 0 % 1012,9 hPa 0,0 l/m 0,0 km/h (0 Bft) N 360 0 min 0 lux 0 W/m
15.01.2016 19:17 0,0 C 2,3 C 0,0 C 0 % 1012,9 hPa 0,0 l/m 0,0 km/h (0 Bft) N 360 0 min 0 lux 0 W/m
15.01.2016 19:22 0,0 C 2,3 C 0,0 C 0 % 1012,9 hPa 0,0 l/m 0,0 km/h (0 Bft) N 360 0 min 0 lux 0 W/m
15.01.2016 19:27 0,0 C 2,3 C 1,5 C 30 % 1012,9 hPa 0,0 l/m 35,5 km/h (5 Bft) NW67.5 305 0 min 16,5 klux 0 W/m
15.01.2016 19:32 0,0 C 2,3 C 0,0 C 0 % 1012,9 hPa 0,0 l/m 0,0 km/h (0 Bft) N 360 0 min 0 lux 0 W/m
15.01.2016 19:37 0,0 C 2,3 C 0,0 C 0 % 1012,9 hPa 0,0 l/m 0,0 km/h (0 Bft) N 360 0 min 0 lux 0 W/m
15.01.2016 19:42 0,0 C 2,3 C 0,0 C 0 % 1013,9 hPa 0,0 l/m 0,0 km/h (0 Bft) N 360 0 min 0 lux 0 W/m
15.01.2016 19:47 0,0 C 1,5 C 1,5 C 30 % 1013,9 hPa 0,0 l/m 16,5 km/h (3 Bft) NW67.5 305 0 min 16,4 klux 0 W/m
15.01.2016 19:52 0,0 C 2,3 C 0,0 C 0 % 1013,9 hPa 0,0 l/m 0,0 km/h (0 Bft) N 360 0 min 0 lux 0 W/m
15.01.2016 19:57 0,0 C 2,3 C 0,0 C 0 % 1013,9 hPa 0,0 l/m 0,0 km/h (0 Bft) N 360 0 min 0 lux 0 W/m
15.01.2016 20:02 0,0 C 2,3 C 0,0 C 0 % 1013,9 hPa 0,0 l/m 0,0 km/h (0 Bft) N 360 0 min 0 lux 0 W/m
15.01.2016 20:06 0,0 C 1,5 C 1,5 C 30 % 1013,9 hPa 0,0 l/m 16,5 km/h (3 Bft) NW67.5 305 0 min 16,4 klux 0 W/m
15.01.2016 20:12 0,0 C 2,3 C 0,0 C 0 % 1013,9 hPa 0,0 l/m 0,0 km/h (0 Bft) N 360 0 min 0 lux 0 W/m
15.01.2016 20:17 0,0 C 2,3 C 0,0 C 0 % 1013,9 hPa 0,0 l/m 0,0 km/h (0 Bft) N 360 0 min 0 lux 0 W/m
15.01.2016 20:22 0,0 C 2,3 C 0,0 C 0 % 1013,9 hPa 0,0 l/m 0,0 km/h (0 Bft) N 360 0 min 0 lux 0 W/m
15.01.2016 20:27 0,0 C 1,5 C 0,7 C 30 % 1013,9 hPa 0,0 l/m 32,5 km/h (5 Bft) NW67.5 305 0 min 165 lux 0 W/m
15.01.2016 20:32 0,0 C 2,2 C 0,0 C 0 % 1014,9 hPa 0,0 l/m 0,0 km/h (0 Bft) N 360 0 min 0 lux 0 W/m
15.01.2016 20:36 0,0 C 2,2 C 0,0 C 0 % 1014,9 hPa 0,0 l/m 0,0 km/h (0 Bft) N 360 0 min 0 lux 0 W/m
15.01.2016 20:42 0,0 C 2,1 C 0,0 C 0 % 1014,9 hPa 0,0 l/m 0,0 km/h (0 Bft) N 360 0 min 0 lux 0 W/m
15.01.2016 20:47 0,0 C 1,5 C 0,7 C 30 % 1014,9 hPa 0,0 l/m 32,5 km/h (5 Bft) NW67.5 305 0 min 165 lux 0 W/m
15.01.2016 20:52 0,0 C 2,1 C 0,0 C 0 % 1014,9 hPa 0,0 l/m 0,0 km/h (0 Bft) N 360 0 min 0 lux 0 W/m
15.01.2016 20:57 0,0 C 2,0 C 0,0 C 0 % 1014,9 hPa 0,0 l/m 0,0 km/h (0 Bft) N 360 0 min 0 lux 0 W/m
15.01.2016 21:02 0,0 C 2,1 C 0,0 C 0 % 1014,9 hPa 0,0 l/m 0,0 km/h (0 Bft) N 360 0 min 0 lux 0 W/m
15.01.2016 21:07 0,0 C 2,1 C 0,5 C 30 % 1014,9 hPa 0,0 l/m 16,5 km/h (3 Bft) N-NW67.5 345 0 min 165 lux 0 W/m
15.01.2016 21:12 0,0 C 2,0 C 0,0 C 0 % 1014,9 hPa 0,0 l/m 0,0 km/h (0 Bft) N 360 0 min 0 lux 0 W/m
15.01.2016 21:17 0,0 C 2,0 C 0,0 C 0 % 1014,9 hPa 0,0 l/m 0,0 km/h (0 Bft) N 360 0 min 0 lux 0 W/m
15.01.2016 21:22 0,0 C 2,0 C 0,0 C 0 % 1014,9 hPa 0,0 l/m 0,0 km/h (0 Bft) N 360 0 min 0 lux 0 W/m
15.01.2016 21:26 0,0 C 2,0 C 0,5 C 30 % 1014,9 hPa 0,0 l/m 16,5 km/h (3 Bft) N-NW67.5 345 0 min 165 lux 0 W/m
15.01.2016 21:32 0,0 C 2,0 C 0,0 C 0 % 1015,9 hPa 0,0 l/m 0,0 km/h (0 Bft) N 360 0 min 0 lux 0 W/m
15.01.2016 21:37 0,0 C 1,9 C 0,0 C 0 % 1015,9 hPa 0,0 l/m 0,0 km/h (0 Bft) N 360 0 min 0 lux 0 W/m
15.01.2016 21:42 0,0 C 1,9 C 0,0 C 0 % 1015,9 hPa 0,0 l/m 0,0 km/h (0 Bft) N 360 0 min 0 lux 0 W/m
15.01.2016 21:47 0,0 C 1,9 C 0,5 C 0 % 1015,9 hPa 0,0 l/m 55,7 km/h (7 Bft) NW67.5 305 0 min 164 lux 0 W/m
15.01.2016 21:52 0,0 C 1,9 C 0,0 C 0 % 1015,9 hPa 0,0 l/m 0,0 km/h (0 Bft) N 360 0 min 0 lux 0 W/m
15.01.2016 21:56 0,0 C 1,9 C 0,0 C 0 % 1015,9 hPa 0,0 l/m 0,0 km/h (0 Bft) N 360 0 min 0 lux 0 W/m
15.01.2016 22:02 0,0 C 1,9 C 0,0 C 0 % 1015,9 hPa 0,0 l/m 0,0 km/h (0 Bft) N 360 0 min 0 lux 0 W/m
15.01.2016 22:07 0,0 C 1,9 C 0,5 C 30 % 1015,9 hPa 0,0 l/m 55,7 km/h (7 Bft) NW67.5 305 0 min 164 lux 0 W/m
15.01.2016 22:12 0,0 C 1,9 C 0,0 C 0 % 1015,9 hPa 0,0 l/m 0,0 km/h (0 Bft) N 360 0 min 0 lux 0 W/m
15.01.2016 22:17 0,0 C 1,9 C 0,0 C 0 % 1015,9 hPa 0,0 l/m 0,0 km/h (0 Bft) N 360 0 min 0 lux 0 W/m
15.01.2016 22:22 0,0 C 1,8 C 0,0 C 0 % 1015,9 hPa 0,0 l/m 0,0 km/h (0 Bft) N 360 0 min 0 lux 0 W/m
15.01.2016 22:27 0,0 C 1,8 C 3,5 C 0 % 1015,9 hPa 0,0 l/m 16,3 km/h (3 Bft) N22.5 360 0 min 165 lux 0 W/m
15.01.2016 22:32 0,0 C 1,8 C 0,0 C 0 % 1015,9 hPa 0,0 l/m 0,0 km/h (0 Bft) N 360 0 min 0 lux 0 W/m
15.01.2016 22:37 0,0 C 1,8 C 0,0 C 0 % 1015,9 hPa 0,0 l/m 0,0 km/h (0 Bft) N 360 0 min 0 lux 0 W/m
15.01.2016 22:42 0,0 C 1,8 C 0,0 C 0 % 1015,9 hPa 0,0 l/m 0,0 km/h (0 Bft) N 360 0 min 0 lux 0 W/m
15.01.2016 22:47 0,0 C 1,8 C 3,5 C 30 % 1015,9 hPa 0,0 l/m 16,3 km/h (3 Bft) N22.5 360 0 min 165 lux 0 W/m
15.01.2016 22:52 0,0 C 1,8 C 0,0 C 0 % 1016,9 hPa 0,0 l/m 0,0 km/h (0 Bft) N 360 0 min 0 lux 0 W/m
15.01.2016 22:57 0,0 C 1,7 C 0,0 C 0 % 1016,9 hPa 0,0 l/m 0,0 km/h (0 Bft) N 360 0 min 0 lux 0 W/m
15.01.2016 23:02 0,0 C 1,7 C 0,0 C 0 % 1016,9 hPa 0,0 l/m 0,0 km/h (0 Bft) N 360 0 min 0 lux 0 W/m
15.01.2016 23:07 0,0 C 0,7 C 5,5 C 0 % 1016,9 hPa 0,0 l/m 36,5 km/h (5 Bft) NW67.5 305 0 min 16,3 klux 0 W/m
15.01.2016 23:12 0,0 C 1,7 C 0,0 C 0 % 1016,9 hPa 0,0 l/m 0,0 km/h (0 Bft) N 360 0 min 0 lux 0 W/m
15.01.2016 23:17 0,0 C 1,7 C 0,0 C 0 % 1016,9 hPa 0,0 l/m 0,0 km/h (0 Bft) N 360 0 min 0 lux 0 W/m
15.01.2016 23:22 0,0 C 1,6 C 0,0 C 0 % 1016,9 hPa 0,0 l/m 0,0 km/h (0 Bft) N 360 0 min 0 lux 0 W/m
15.01.2016 23:27 0,0 C 1,5 C 5,5 C 30 % 1016,9 hPa 0,0 l/m 36,5 km/h (5 Bft) NW67.5 305 0 min 16,3 klux 0 W/m
15.01.2016 23:32 0,0 C 1,6 C 0,0 C 0 % 1016,9 hPa 0,0 l/m 0,0 km/h (0 Bft) N 360 0 min 0 lux 0 W/m
15.01.2016 23:37 0,0 C 1,6 C 0,0 C 0 % 1016,9 hPa 0,0 l/m 0,0 km/h (0 Bft) N 360 0 min 0 lux 0 W/m
15.01.2016 23:42 0,0 C 1,5 C 0,0 C 0 % 1016,9 hPa 0,0 l/m 0,0 km/h (0 Bft) N 360 0 min 0 lux 0 W/m
15.01.2016 23:47 0,0 C 0,5 C 5,5 C 0 % 1016,9 hPa 0,0 l/m 8,5 km/h (2 Bft) N67.5 360 0 min 25,3 klux 0 W/m
15.01.2016 23:52 0,0 C 1,5 C 0,0 C 0 % 1016,9 hPa 0,0 l/m 0,0 km/h (0 Bft) N 360 0 min 0 lux 0 W/m
15.01.2016 23:57 0,0 C 1,6 C 0,0 C 0 % 1016,9 hPa 0,0 l/m 0,0 km/h (0 Bft) N 360 0 min 0 lux 0 W/m
_ Min-Zeit 05:05 02:25 02:25 00:00 01:10 - 08:12 - - - - -
Minimum _ -50,0 C -1,5 C -5,3 C 0 % 997,5 hPa - 0,0 km/h (0 Bft) - - - - -
_ Max-Zeit 01:05 10:07 23:07 16:27 22:52 00:00 07:05 - - 14:47 05:05 13:47
Maximum _ 26,3 C 8,7 C 5,5 C 30 % 1016,9 hPa 0,0 l/m 71,5 km/h
S-SO (8 Bft)
- - 6 min 200 klux 1368 W/m
Durchschnitt _ -8,7 C 1,7 C -0,0 C 1 % 1006,4 hPa #0,0 l/m 12,2 km/h (2 Bft) S-SW - #51 min. 19,1 klux 150 W/m